カタログに戻る

ONEWEB-0162

運用中通信PO
NORAD 48056·PAYLOAD·🇬🇧 United Kingdom

打ち上げ Mar 25, 2021 から Vostochny Cosmodrome

Loading…

次のパス (今後24時間)

TLE

最新Source: CelesTrak SupGP

元期: Sep 14, 2026, 15:50 UTC

1 48056C 21025Q   26257.66025880 -.00000495  00000+0 -13584-2 0  2579
2 48056  87.8928 302.4240 0001939 101.1138   1.6157 13.13474678    14

AllMySatでONEWEB-0162をリアルタイム追跡

Download on the App Store